UAL1987 KPHX-KLAX

Flight info

Callsign UAL1987
Flight time 0h 58m
Altitude 30000
Route KEENS3 WLVRN ESTWD HLYWD1
Aircraft B77W/H-SDE1E2E3FGHIJ2J3J4J5M1RWXY/LB1D1

Departure

Time 2026-05-04 00:38
Airport Phoenix Sky Harbor International Airport (KPHX)

Arrival

Time 2026-05-04 01:36
Airport Los Angeles International Airport (KLAX)
Time Latitude Longitude Altitude Speed Heading
2026-05-04 00:15 33.43768 -111.99348 1140 ft 0 kts 274°
2026-05-04 00:22 33.43767 -111.99332 1140 ft 2 kts 274°
2026-05-04 00:22 33.43766 -111.99313 1140 ft 2 kts 272°
2026-05-04 00:23 33.43765 -111.99293 1138 ft 2 kts 270°
2026-05-04 00:23 33.43766 -111.99273 1138 ft 2 kts 264°
2026-05-04 00:23 33.43769 -111.99254 1139 ft 2 kts 242°
2026-05-04 00:23 33.43777 -111.99237 1138 ft 2 kts 219°
2026-05-04 00:24 33.43790 -111.99229 1140 ft 1 kts 185°
2026-05-04 00:24 33.43784 -111.99229 1139 ft 7 kts 181°
2026-05-04 00:24 33.43764 -111.99239 1140 ft 3 kts 233°
2026-05-04 00:24 33.43763 -111.99262 1141 ft 3 kts 270°
2026-05-04 00:25 33.43770 -111.99286 1141 ft 3 kts 294°
2026-05-04 00:25 33.43774 -111.99317 1139 ft 5 kts 273°
2026-05-04 00:25 33.43775 -111.99358 1139 ft 0 kts 270°
2026-05-04 00:26 33.43775 -111.99355 1139 ft 2 kts 269°
2026-05-04 00:26 33.43776 -111.99335 1140 ft 2 kts 266°
2026-05-04 00:26 33.43776 -111.99316 1138 ft 2 kts 267°
2026-05-04 00:26 33.43777 -111.99296 1141 ft 2 kts 267°
2026-05-04 00:27 33.43778 -111.99277 1136 ft 2 kts 269°
2026-05-04 00:27 33.43778 -111.99257 1138 ft 2 kts 274°
2026-05-04 00:27 33.43775 -111.99238 1138 ft 2 kts 291°
2026-05-04 00:27 33.43773 -111.99227 1138 ft 0 kts
2026-05-04 00:28 33.43774 -111.99227 1138 ft 1 kts
2026-05-04 00:28 33.43796 -111.99228 1139 ft 6 kts 358°
2026-05-04 00:29 33.43853 -111.99229 1138 ft 11 kts 358°
2026-05-04 00:29 33.43908 -111.99261 1140 ft 10 kts 296°
2026-05-04 00:29 33.43904 -111.99360 1136 ft 14 kts 269°
2026-05-04 00:29 33.43904 -111.99501 1136 ft 19 kts 270°
2026-05-04 00:30 33.43902 -111.99683 1136 ft 24 kts 269°
2026-05-04 00:30 33.43904 -111.99850 1136 ft 18 kts 270°
2026-05-04 00:30 33.43904 -111.99956 1136 ft 12 kts 270°
2026-05-04 00:30 33.43905 -112.00052 1136 ft 12 kts 271°
2026-05-04 00:31 33.43904 -112.00149 1132 ft 12 kts 269°
2026-05-04 00:31 33.43903 -112.00245 1136 ft 12 kts 270°
2026-05-04 00:31 33.43904 -112.00343 1136 ft 12 kts 271°
2026-05-04 00:31 33.43844 -112.00385 1139 ft 12 kts 175°
2026-05-04 00:32 33.43760 -112.00382 1138 ft 12 kts 179°
2026-05-04 00:32 33.43675 -112.00382 1139 ft 13 kts 180°
2026-05-04 00:32 33.43559 -112.00382 1138 ft 21 kts 180°
2026-05-04 00:32 33.43399 -112.00383 1138 ft 26 kts 180°
2026-05-04 00:33 33.43272 -112.00382 1139 ft 12 kts 180°
2026-05-04 00:33 33.43212 -112.00260 1140 ft 11 kts 78°
2026-05-04 00:33 33.43215 -112.00166 1141 ft 11 kts 90°
2026-05-04 00:34 33.43215 -112.00070 1140 ft 12 kts 90°
2026-05-04 00:34 33.43215 -111.99965 1140 ft 14 kts 90°
2026-05-04 00:34 33.43215 -111.99829 1140 ft 18 kts 90°
2026-05-04 00:34 33.43214 -111.99662 1140 ft 18 kts 90°
2026-05-04 00:35 33.43214 -111.99510 1140 ft 18 kts 90°
2026-05-04 00:35 33.43213 -111.99403 1140 ft 9 kts 95°
2026-05-04 00:35 33.43185 -111.99357 1139 ft 6 kts 158°
2026-05-04 00:35 33.43140 -111.99351 1142 ft 6 kts 179°
2026-05-04 00:36 33.43107 -111.99378 1144 ft 7 kts 258°
2026-05-04 00:36 33.43104 -111.99411 1143 ft 0 kts 269°
2026-05-04 00:37 33.43103 -111.99616 1144 ft 64 kts 270°
2026-05-04 00:37 33.43103 -112.00472 1142 ft 138 kts 269°
2026-05-04 00:37 33.43101 -112.01810 1297 ft 177 kts 268°
2026-05-04 00:38 33.43117 -112.03339 1787 ft 191 kts 266°
2026-05-04 00:38 33.43132 -112.04994 2352 ft 202 kts 262°
2026-05-04 00:38 33.42895 -112.06631 3289 ft 197 kts 250°
2026-05-04 00:38 33.42484 -112.08211 3936 ft 212 kts 248°
2026-05-04 00:39 33.41972 -112.10031 4216 ft 246 kts 248°
2026-05-04 00:39 33.41385 -112.12031 5022 ft 259 kts 247°
2026-05-04 00:39 33.40770 -112.14076 6037 ft 259 kts 248°
2026-05-04 00:39 33.40148 -112.16114 7021 ft 264 kts 247°
2026-05-04 00:40 33.39512 -112.18186 7963 ft 268 kts 246°
2026-05-04 00:40 33.39154 -112.20372 8738 ft 281 kts 268°
2026-05-04 00:40 33.39448 -112.22702 9575 ft 288 kts 275°
2026-05-04 00:40 33.39813 -112.25097 10383 ft 297 kts 276°
2026-05-04 00:41 33.40196 -112.27619 10833 ft 323 kts 276°
2026-05-04 00:41 33.40611 -112.30400 11131 ft 353 kts 277°
2026-05-04 00:41 33.41052 -112.33326 12071 ft 361 kts 277°
2026-05-04 00:41 33.41502 -112.36298 13271 ft 365 kts 276°
2026-05-04 00:42 33.41954 -112.39311 14360 ft 369 kts 276°
2026-05-04 00:42 33.42405 -112.42345 15613 ft 368 kts 276°
2026-05-04 00:42 33.42851 -112.45352 16929 ft 366 kts 276°
2026-05-04 00:42 33.43295 -112.48360 18186 ft 367 kts 276°
2026-05-04 00:43 33.43738 -112.51373 19196 ft 370 kts 276°
2026-05-04 00:43 33.44185 -112.54426 20190 ft 373 kts 276°
2026-05-04 00:43 33.44634 -112.57492 21215 ft 375 kts 277°
2026-05-04 00:43 33.45062 -112.60572 22229 ft 376 kts 274°
2026-05-04 00:44 33.45219 -112.63688 23183 ft 377 kts 269°
2026-05-04 00:44 33.45206 -112.66854 23975 ft 381 kts 268°
2026-05-04 00:44 33.45179 -112.70068 24466 ft 388 kts 268°
2026-05-04 00:44 33.45190 -112.73249 24884 ft 386 kts 269°
2026-05-04 00:45 33.45225 -112.76462 25356 ft 386 kts 269°
2026-05-04 00:45 33.45283 -112.78634 25672 ft 388 kts 272°
2026-05-04 00:45 33.46139 -112.82805 26293 ft 394 kts 288°
2026-05-04 00:45 33.46872 -112.84852 26647 ft 396 kts 289°
2026-05-04 00:46 33.48326 -112.88874 27304 ft 398 kts 289°
2026-05-04 00:46 33.49067 -112.90937 27651 ft 400 kts 289°
2026-05-04 00:46 33.50160 -112.93998 28163 ft 401 kts 288°
2026-05-04 00:46 33.51255 -112.97086 28688 ft 403 kts 288°
2026-05-04 00:47 33.52343 -113.00179 29216 ft 404 kts 288°
2026-05-04 00:47 33.53437 -113.03298 29784 ft 407 kts 288°
2026-05-04 00:47 33.54531 -113.06436 29751 ft 417 kts 288°
2026-05-04 00:48 33.56756 -113.12817 29764 ft 410 kts 288°
2026-05-04 00:48 33.58950 -113.19116 29753 ft 410 kts 288°
2026-05-04 00:49 33.61141 -113.25432 29772 ft 410 kts 288°
2026-05-04 00:49 33.63335 -113.31769 29760 ft 411 kts 288°
2026-05-04 00:50 33.65527 -113.38107 29768 ft 411 kts 288°
2026-05-04 00:50 33.67716 -113.44452 30058 ft 411 kts 288°
2026-05-04 00:51 33.69901 -113.50797 30085 ft 411 kts 288°
2026-05-04 00:51 33.72082 -113.57147 30081 ft 411 kts 288°
2026-05-04 00:52 33.74258 -113.63492 30044 ft 411 kts 288°
2026-05-04 00:52 33.75347 -113.66672 29759 ft 411 kts 288°
2026-05-04 00:52 33.76431 -113.69843 29738 ft 410 kts 288°
2026-05-04 00:53 33.78602 -113.76195 29745 ft 408 kts 287°
2026-05-04 00:53 33.79660 -113.79282 29752 ft 390 kts 287°
2026-05-04 00:53 33.80671 -113.82240 29727 ft 375 kts 287°
2026-05-04 00:54 33.82619 -113.87998 29749 ft 371 kts 287°
2026-05-04 00:54 33.84556 -113.93747 29751 ft 371 kts 287°
2026-05-04 00:55 33.86496 -113.99500 29741 ft 371 kts 287°
2026-05-04 00:55 33.88422 -114.05216 29743 ft 370 kts 287°
2026-05-04 00:56 33.90348 -114.10959 29731 ft 369 kts 285°
2026-05-04 00:56 33.91590 -114.16903 29738 ft 366 kts 277°
2026-05-04 00:57 33.92539 -114.22937 29734 ft 367 kts 277°
2026-05-04 00:57 33.93516 -114.28991 29730 ft 368 kts 277°
2026-05-04 00:58 33.94524 -114.35045 29718 ft 369 kts 278°
2026-05-04 00:58 33.95544 -114.41107 29708 ft 369 kts 277°
2026-05-04 00:59 33.96562 -114.47162 29747 ft 368 kts 277°
2026-05-04 00:59 33.97577 -114.53212 29716 ft 368 kts 277°
2026-05-04 01:00 33.98586 -114.59248 29708 ft 367 kts 276°
2026-05-04 01:00 33.99589 -114.65274 29719 ft 366 kts 277°
2026-05-04 01:01 34.00590 -114.71297 29716 ft 367 kts 277°
2026-05-04 01:01 34.01590 -114.77334 29718 ft 367 kts 277°
2026-05-04 01:02 34.02586 -114.83374 29720 ft 367 kts 277°
2026-05-04 01:02 34.03574 -114.89377 29717 ft 367 kts 277°
2026-05-04 01:03 34.04566 -114.95425 29721 ft 367 kts 277°
2026-05-04 01:03 34.05554 -115.01472 29733 ft 368 kts 277°
2026-05-04 01:04 34.06542 -115.07529 29730 ft 368 kts 277°
2026-05-04 01:04 34.07524 -115.13569 29725 ft 366 kts 277°
2026-05-04 01:05 34.08500 -115.19576 29702 ft 363 kts 277°
2026-05-04 01:05 34.09466 -115.25548 29728 ft 362 kts 277°
2026-05-04 01:06 34.10424 -115.31503 29727 ft 361 kts 277°
2026-05-04 01:06 34.11379 -115.37459 29729 ft 362 kts 276°
2026-05-04 01:07 34.12338 -115.43453 29739 ft 364 kts 276°
2026-05-04 01:07 34.13297 -115.49465 29743 ft 366 kts 276°
2026-05-04 01:08 34.14260 -115.55519 29753 ft 368 kts 276°
2026-05-04 01:08 34.15214 -115.61545 29737 ft 366 kts 276°
2026-05-04 01:09 34.16162 -115.67571 29741 ft 364 kts 275°
2026-05-04 01:09 34.16309 -115.70597 29741 ft 359 kts 264°
2026-05-04 01:09 34.15996 -115.73632 29763 ft 373 kts 262°
2026-05-04 01:09 34.15653 -115.76822 29805 ft 392 kts 262°
2026-05-04 01:10 34.15318 -115.80106 29782 ft 396 kts 262°
2026-05-04 01:10 34.14993 -115.83387 29572 ft 390 kts 262°
2026-05-04 01:10 34.14679 -115.86613 29029 ft 383 kts 262°
2026-05-04 01:10 34.14376 -115.89752 28801 ft 370 kts 262°
2026-05-04 01:11 34.14075 -115.92860 28450 ft 367 kts 262°
2026-05-04 01:11 34.13779 -115.95881 28158 ft 365 kts 262°
2026-05-04 01:11 34.13483 -115.98910 27852 ft 363 kts 262°
2026-05-04 01:11 34.13187 -116.01931 27557 ft 362 kts 262°
2026-05-04 01:12 34.12892 -116.04941 27250 ft 360 kts 262°
2026-05-04 01:12 34.12597 -116.07943 26950 ft 359 kts 262°
2026-05-04 01:12 34.12303 -116.10935 26652 ft 358 kts 262°
2026-05-04 01:12 34.12009 -116.13916 26362 ft 358 kts 262°
2026-05-04 01:13 34.11715 -116.16891 26072 ft 357 kts 262°
2026-05-04 01:13 34.11421 -116.19865 25776 ft 356 kts 262°
2026-05-04 01:13 34.11126 -116.22835 25489 ft 356 kts 261°
2026-05-04 01:13 34.10831 -116.25798 25142 ft 355 kts 261°
2026-05-04 01:14 34.10534 -116.28774 24877 ft 360 kts 261°
2026-05-04 01:14 34.10228 -116.31780 24604 ft 362 kts 261°
2026-05-04 01:14 34.09907 -116.34800 24326 ft 363 kts 261°
2026-05-04 01:14 34.09581 -116.37829 24068 ft 365 kts 261°
2026-05-04 01:15 34.09253 -116.40874 23782 ft 367 kts 261°
2026-05-04 01:15 34.08923 -116.43930 23469 ft 368 kts 261°
2026-05-04 01:15 34.08594 -116.46990 23135 ft 368 kts 261°
2026-05-04 01:15 34.08265 -116.50048 22810 ft 367 kts 261°
2026-05-04 01:16 34.07940 -116.53073 22467 ft 362 kts 261°
2026-05-04 01:16 34.07617 -116.56061 22113 ft 356 kts 261°
2026-05-04 01:16 34.07299 -116.59001 21835 ft 349 kts 261°
2026-05-04 01:16 34.07014 -116.61898 21820 ft 352 kts 261°
2026-05-04 01:17 34.06739 -116.64881 21862 ft 359 kts 262°
2026-05-04 01:17 34.06472 -116.67825 21862 ft 346 kts 262°
2026-05-04 01:17 34.06217 -116.70653 21858 ft 335 kts 261°
2026-05-04 01:17 34.05961 -116.73431 21880 ft 333 kts 261°
2026-05-04 01:18 34.05703 -116.76191 21915 ft 330 kts 261°
2026-05-04 01:18 34.05443 -116.78954 21920 ft 332 kts 261°
2026-05-04 01:18 34.05184 -116.81729 21921 ft 334 kts 262°
2026-05-04 01:18 34.04924 -116.84516 21923 ft 336 kts 262°
2026-05-04 01:19 34.04660 -116.87316 21927 ft 335 kts 261°
2026-05-04 01:19 34.04387 -116.90072 21848 ft 327 kts 260°
2026-05-04 01:19 34.04042 -116.92764 21537 ft 322 kts 259°
2026-05-04 01:19 34.03678 -116.95425 20996 ft 322 kts 259°
2026-05-04 01:20 34.03321 -116.98096 20442 ft 323 kts 259°
2026-05-04 01:20 34.02969 -117.00772 19978 ft 322 kts 259°
2026-05-04 01:20 34.02624 -117.03431 19546 ft 320 kts 259°
2026-05-04 01:20 34.02303 -117.06078 19098 ft 319 kts 259°
2026-05-04 01:21 34.01994 -117.08715 18669 ft 317 kts 259°
2026-05-04 01:21 34.01687 -117.11343 18226 ft 316 kts 259°
2026-05-04 01:21 34.01380 -117.13952 17723 ft 314 kts 259°
2026-05-04 01:21 34.01070 -117.16568 17180 ft 315 kts 259°
2026-05-04 01:22 34.00758 -117.19186 16623 ft 317 kts 259°
2026-05-04 01:22 34.00443 -117.21824 16036 ft 319 kts 259°
2026-05-04 01:22 34.00126 -117.24475 15522 ft 319 kts 259°
2026-05-04 01:22 33.99813 -117.27093 15003 ft 320 kts 259°
2026-05-04 01:23 33.99494 -117.29753 14483 ft 320 kts 258°
2026-05-04 01:23 33.99177 -117.32406 14153 ft 320 kts 259°
2026-05-04 01:23 33.98866 -117.35058 13745 ft 320 kts 258°
2026-05-04 01:23 33.98554 -117.37716 13217 ft 320 kts 259°
2026-05-04 01:24 33.98243 -117.40368 12751 ft 319 kts 259°
2026-05-04 01:24 33.97940 -117.42952 12772 ft 306 kts 259°
2026-05-04 01:24 33.97640 -117.45490 12807 ft 304 kts 259°
2026-05-04 01:24 33.97348 -117.48012 12845 ft 304 kts 261°
2026-05-04 01:25 33.97448 -117.50578 12852 ft 313 kts 277°
2026-05-04 01:25 33.97951 -117.53168 12868 ft 321 kts 279°
2026-05-04 01:25 33.98451 -117.55797 12875 ft 320 kts 278°
2026-05-04 01:25 33.98929 -117.58386 12724 ft 315 kts 278°
2026-05-04 01:26 33.99393 -117.60968 12295 ft 316 kts 278°
2026-05-04 01:26 33.99851 -117.63550 11871 ft 315 kts 278°
2026-05-04 01:26 34.00305 -117.66122 11453 ft 313 kts 278°
2026-05-04 01:26 34.00676 -117.68687 11010 ft 305 kts 269°
2026-05-04 01:27 34.00501 -117.71189 10523 ft 304 kts 258°
2026-05-04 01:27 34.00188 -117.73751 10032 ft 306 kts 260°
2026-05-04 01:27 33.99914 -117.76308 9505 ft 309 kts 260°
2026-05-04 01:27 33.99662 -117.78825 9319 ft 300 kts 261°
2026-05-04 01:28 33.99496 -117.80509 9063 ft 303 kts 261°
2026-05-04 01:28 33.99166 -117.83872 8521 ft 304 kts 261°
2026-05-04 01:28 33.99001 -117.85575 8250 ft 303 kts 261°
2026-05-04 01:28 33.98678 -117.88902 7745 ft 300 kts 261°
2026-05-04 01:29 33.98436 -117.91382 7368 ft 298 kts 261°
2026-05-04 01:29 33.98271 -117.93051 7121 ft 297 kts 261°
2026-05-04 01:29 33.98028 -117.95518 6750 ft 295 kts 261°
2026-05-04 01:29 33.97780 -117.97976 6383 ft 295 kts 260°
2026-05-04 01:30 33.97543 -118.00408 5978 ft 285 kts 261°
2026-05-04 01:30 33.97338 -118.02697 5626 ft 269 kts 262°
2026-05-04 01:30 33.97133 -118.04885 5319 ft 257 kts 262°
2026-05-04 01:30 33.96927 -118.06942 5048 ft 245 kts 262°
2026-05-04 01:31 33.96725 -118.08939 4710 ft 236 kts 261°
2026-05-04 01:31 33.96525 -118.10891 4390 ft 230 kts 261°
2026-05-04 01:31 33.96333 -118.12772 4097 ft 228 kts 261°
2026-05-04 01:31 33.96137 -118.14700 3828 ft 229 kts 261°
2026-05-04 01:32 33.95944 -118.16587 3501 ft 224 kts 262°
2026-05-04 01:32 33.95759 -118.18417 3219 ft 212 kts 261°
2026-05-04 01:32 33.95587 -118.20112 2963 ft 197 kts 262°
2026-05-04 01:32 33.95418 -118.21756 2727 ft 202 kts 261°
2026-05-04 01:33 33.95246 -118.23451 2466 ft 199 kts 262°
2026-05-04 01:33 33.95082 -118.25068 2224 ft 190 kts 261°
2026-05-04 01:33 33.94925 -118.26609 1990 ft 180 kts 262°
2026-05-04 01:33 33.94782 -118.28012 1728 ft 162 kts 261°
2026-05-04 01:34 33.94655 -118.29267 1504 ft 139 kts 260°
2026-05-04 01:34 33.94543 -118.30353 1239 ft 124 kts 261°
2026-05-04 01:34 33.94441 -118.31351 1216 ft 123 kts 262°
2026-05-04 01:34 33.94335 -118.32402 1084 ft 128 kts 261°
2026-05-04 01:35 33.94225 -118.33461 931 ft 127 kts 263°
2026-05-04 01:35 33.94120 -118.34502 754 ft 124 kts 263°
2026-05-04 01:35 33.94009 -118.35572 578 ft 134 kts 263°
2026-05-04 01:35 33.93900 -118.36651 432 ft 125 kts 264°
2026-05-04 01:36 33.93796 -118.37670 248 ft 119 kts 263°
2026-05-04 01:36 33.93704 -118.38649 143 ft 114 kts 263°
2026-05-04 01:36 33.93614 -118.39471 128 ft 76 kts 263°
2026-05-04 01:36 33.93570 -118.39903 129 ft 42 kts 262°
2026-05-04 01:37 33.93535 -118.40271 126 ft 43 kts 265°
2026-05-04 01:37 33.93557 -118.40523 128 ft 21 kts 287°
2026-05-04 01:37 33.93591 -118.40651 129 ft 12 kts 279°
2026-05-04 01:37 33.93595 -118.40693 126 ft 11 kts 271°
2026-05-04 01:38 33.93594 -118.40767 128 ft 0 kts 266°
2026-05-04 01:38 33.93599 -118.40815 127 ft 9 kts 288°
2026-05-04 01:38 33.93633 -118.40880 125 ft 9 kts 318°
2026-05-04 01:38 33.93697 -118.40902 126 ft 10 kts 355°
2026-05-04 01:39 33.93749 -118.40908 128 ft 6 kts 353°
2026-05-04 01:39 33.93785 -118.40888 125 ft 6 kts 63°
2026-05-04 01:39 33.93793 -118.40830 127 ft 8 kts 81°
2026-05-04 01:39 33.93802 -118.40760 128 ft 9 kts 82°
2026-05-04 01:40 33.93811 -118.40679 126 ft 11 kts 82°
2026-05-04 01:40 33.93819 -118.40586 128 ft 12 kts 83°
2026-05-04 01:40 33.93829 -118.40484 127 ft 13 kts 84°
2026-05-04 01:40 33.93841 -118.40369 128 ft 14 kts 83°
2026-05-04 01:41 33.93853 -118.40247 126 ft 16 kts 83°
2026-05-04 01:41 33.93865 -118.40125 127 ft 8 kts 83°
2026-05-04 01:41 33.93877 -118.40051 130 ft 9 kts 62°
2026-05-04 01:41 33.93938 -118.40053 126 ft 10 kts 348°
2026-05-04 01:42 33.94009 -118.40065 127 ft 11 kts 352°
2026-05-04 01:42 33.94086 -118.40077 127 ft 12 kts 352°
2026-05-04 01:42 33.94146 -118.40087 127 ft 7 kts 353°
2026-05-04 01:42 33.94164 -118.40089 128 ft 2 kts 354°
2026-05-04 01:43 33.94179 -118.40074 126 ft 4 kts 54°
2026-05-04 01:43 33.94192 -118.40050 127 ft 0 kts 60°
2026-05-04 01:43 33.94194 -118.40044 126 ft 2 kts 63°
2026-05-04 01:43 33.94199 -118.40032 126 ft 0 kts 63°